星链-34514 (STARLINK-34514)

导读

STARLINK-34514是美国SpaceX公司于2025年6月17日发射的星链低轨通信卫星,属于星链全球宽带互联网星座的组网卫星。该卫星采用平板设计,搭载Ku/Ka波段通信载荷,配备氪工质霍尔推进器,具备自主避撞能力,设计寿命约5-7年,退役后将主动离轨再入大气层烧毁,旨在为全球尤其是偏远地区提供高速宽带互联网服务。

基本信息
目录编号:
64416
目录名称:
STARLINK-34514
国际标识:
2025-129E
轨道中心:
EARTH
卫星名称:
星链-34514
卫星全名:
星链-34514 (STARLINK-34514)
卫星状态:
在轨 (已飞行444 天)
发射日期:
2025-06-17 UTC
国别 :
美国 (US)
星等 :
--
轨道信息
数据来源 国际轨道数据
星历时间: 2026-09-04T14:00:02+0800
7小时前
查看轨道信息
半长轴: 6866.893km
偏心率: 0.000311
轨道倾角: 70.001°
近地点辐角 268.943°
升交点赤经 343.694°
平近点角 239.147°
近地点: 486.62km
远地点: 490.892km
周期: 94.384分钟
每日圈数: 15.256763
详细信息
固有亮度:
5
最大亮度:
2.5
卫星平台:
Starlink V1.0
覆盖范围:
全球
运营商:
太空探索技术公司
运营商所在国:
美国
制造商(研发单位):
太空探索技术公司
制造商所在国:
美国
使用方式:
暂无
卫星简介
Starlink 计划是 SpaceX 推出的全球卫星互联网项目,通过发射低轨道卫星,为全球尤其是偏远地区提供高速、低延迟的互联网服务。自 2019 年起,Starlink 已部署数千颗卫星,旨在缩小全球数字鸿沟,推动互联网普及。该项目还为军事、航空等行业提供通信支持,带来广泛经济效益。
2D轨道图
3D轨道图
轨道高度分析图
轨道倾角分析图
轨道综合分析图
查看轨道综合分析图
交会数据列表
事件ID 空间交会对象 最接近时刻(TCA) 交会距离 交会风险概率(CRP) 交会风险指数(CRI) 操作
CDM_260904-013206-275406-441621
2026-09-04T
01:32:49+0000
0.642 km
远距离
9.052976E-5 中风险 0.74
CDM_260905-102906-441606-445221
2026-09-05T
10:29:12+0000
0.821 km
远距离
1.560566E-5 中风险 0.59
CDM_260830-193605-480206-441621
2026-08-30T
19:36:14+0000
2.694 km
极远距离
1.063817E-6 低风险 0.36
CDM_260904-165705-951506-441621
2026-09-04T
16:57:37+0000
2.624 km
极远距离
9.447901E-7 极低风险 0.35
CDM_260905-142306-441606-445221
2026-09-05T
14:23:57+0000
2.601 km
极远距离
6.110942E-7 极低风险 0.31